JBU735 KJFK-KPHX

Flight info

Callsign JBU735
Flight time N/A
Altitude 32000
Route GAYEL Q818 WOZEE IKNAV OMRAK Q935 HOCKE SLLAP DLL/N0462F340 FALAR GRUVE JAKDI NARLY J114 YANKI FQF ZUN EAGUL6
Aircraft A321/M-SDE3FGHIRWY/LB1

Departure

Time 2026-04-30 21:51
Airport John F. Kennedy International Airport (KJFK)

Arrival

Time N/A
Airport Phoenix Sky Harbor International Airport (KPHX)
Time Latitude Longitude Altitude Speed Heading
2026-04-30 21:31 40.64720 -73.77599 15 ft 0 kts 206°
2026-04-30 21:42 40.64723 -73.77596 15 ft 0 kts 207°
2026-04-30 21:42 40.64737 -73.77589 15 ft 2 kts 188°
2026-04-30 21:42 40.64751 -73.77589 15 ft 2 kts 173°
2026-04-30 21:43 40.64766 -73.77593 15 ft 2 kts 155°
2026-04-30 21:43 40.64775 -73.77599 15 ft 2 kts 143°
2026-04-30 21:43 40.64787 -73.77617 15 ft 0 kts 122°
2026-04-30 21:43 40.64790 -73.77624 15 ft 1 kts 119°
2026-04-30 21:44 40.64791 -73.77625 15 ft 0 kts 120°
2026-04-30 21:45 40.64790 -73.77624 15 ft 0 kts 120°
2026-04-30 21:45 40.64767 -73.77572 15 ft 13 kts 121°
2026-04-30 21:46 40.64729 -73.77478 15 ft 10 kts 103°
2026-04-30 21:46 40.64746 -73.77389 15 ft 10 kts 42°
2026-04-30 21:46 40.64780 -73.77323 15 ft 9 kts 102°
2026-04-30 21:46 40.64748 -73.77238 15 ft 12 kts 120°
2026-04-30 21:47 40.64685 -73.77123 15 ft 16 kts 141°
2026-04-30 21:47 40.64596 -73.77087 15 ft 8 kts 154°
2026-04-30 21:47 40.64574 -73.76982 15 ft 15 kts 85°
2026-04-30 21:47 40.64640 -73.76885 15 ft 15 kts 31°
2026-04-30 21:48 40.64735 -73.76811 15 ft 18 kts 31°
2026-04-30 21:48 40.64849 -73.76720 15 ft 19 kts 30°
2026-04-30 21:48 40.64975 -73.76623 15 ft 24 kts 31°
2026-04-30 21:48 40.65090 -73.76528 15 ft 10 kts 45°
2026-04-30 21:49 40.65092 -73.76462 15 ft 0 kts 116°
2026-04-30 21:49 40.65050 -73.76379 15 ft 14 kts 142°
2026-04-30 21:50 40.64970 -73.76398 15 ft 15 kts 210°
2026-04-30 21:50 40.64693 -73.76612 15 ft 79 kts 211°
2026-04-30 21:50 40.64039 -73.77123 15 ft 138 kts 210°
2026-04-30 21:50 40.63072 -73.77879 145 ft 174 kts 212°
2026-04-30 21:51 40.62017 -73.78696 688 ft 178 kts 212°
2026-04-30 21:51 40.60940 -73.79489 1297 ft 181 kts 212°
2026-04-30 21:51 40.59830 -73.80270 1830 ft 180 kts 211°
2026-04-30 21:51 40.58782 -73.81204 2035 ft 185 kts 237°
2026-04-30 21:52 40.58463 -73.82771 2213 ft 182 kts 285°
2026-04-30 21:52 40.59178 -73.84115 2412 ft 188 kts 327°
2026-04-30 21:52 40.60435 -73.84788 2650 ft 200 kts 339°
2026-04-30 21:52 40.61760 -73.85486 2869 ft 213 kts 335°
2026-04-30 21:53 40.63161 -73.86307 3085 ft 229 kts 334°
2026-04-30 21:53 40.64661 -73.87221 3373 ft 243 kts 334°
2026-04-30 21:53 40.66221 -73.88185 3823 ft 251 kts 333°
2026-04-30 21:53 40.67787 -73.89160 4404 ft 254 kts 333°
2026-04-30 21:54 40.69404 -73.90174 4779 ft 256 kts 333°
2026-04-30 21:54 40.71009 -73.91183 4860 ft 257 kts 333°
2026-04-30 21:54 40.72610 -73.92191 4864 ft 256 kts 333°
2026-04-30 21:54 40.74230 -73.93214 4865 ft 256 kts 333°
2026-04-30 21:55 40.75850 -73.94238 4910 ft 259 kts 333°
2026-04-30 21:55 40.77471 -73.95264 5346 ft 263 kts 333°
2026-04-30 21:55 40.79124 -73.96309 6070 ft 262 kts 333°
2026-04-30 21:55 40.80751 -73.97340 6661 ft 264 kts 333°
2026-04-30 21:56 40.82413 -73.98394 7220 ft 268 kts 332°
2026-04-30 21:56 40.84094 -73.99460 7793 ft 271 kts 332°
2026-04-30 21:56 40.85807 -74.00546 8379 ft 273 kts 332°
2026-04-30 21:56 40.87524 -74.01638 8951 ft 275 kts 332°
2026-04-30 21:57 40.89243 -74.02731 9499 ft 278 kts 332°
2026-04-30 21:57 40.91005 -74.03850 10042 ft 281 kts 331°
2026-04-30 21:57 40.92787 -74.04984 10363 ft 291 kts 331°
2026-04-30 21:57 40.94645 -74.06172 10608 ft 304 kts 331°
2026-04-30 21:58 40.96587 -74.07413 10847 ft 317 kts 331°
2026-04-30 21:58 40.98617 -74.08709 11082 ft 329 kts 331°
2026-04-30 21:58 41.00725 -74.10055 11308 ft 342 kts 331°